This is the latest recevied weather packets stored in our database for station/object KE2A-13. If no packets are shown the sender has not sent any weather packets the latest 10 day(s).
| Time | Temp. | Humidity | Pressure | Rain* | Wind** | Luminosity | Snow |
|---|---|---|---|---|---|---|---|
| 1777619700 | 6.11° C | 75% | 1011.4 hPa | - | - | - | - |
| 1777618800 | 6.67° C | 74% | 1011.4 hPa | - | - | - | - |
| 1777617900 | 6.67° C | 75% | 1011.2 hPa | - | - | - | - |
| 1777617000 | 7.22° C | 75% | 1011.2 hPa | - | - | - | - |
| 1777616100 | 7.22° C | 73% | 1011.3 hPa | - | - | - | - |
| 1777615200 | 7.78° C | 72% | 1011.1 hPa | - | - | - | - |
| 1777614300 | 7.78° C | 68% | 1011.1 hPa | - | - | - | - |
| 1777613400 | 8.33° C | 67% | 1011.1 hPa | - | - | - | - |
| 1777612500 | 9.44° C | 65% | 1011 hPa | - | - | - | - |
| 1777611600 | 9.44° C | 63% | 1010.9 hPa | - | - | - | - |
| 1777610700 | 10° C | 66% | 1010.9 hPa | - | - | - | - |
| 1777609800 | 9.44° C | 65% | 1011 hPa | - | - | - | - |
| 1777608900 | 9.44° C | 73% | 1011 hPa | - | - | - | - |
| 1777608000 | 9.44° C | 79% | 1011 hPa | 9.14 mm | - | - | - |
| 1777607100 | 9.44° C | 80% | 1010.8 hPa | 9.14 mm | - | - | - |
| 1777606200 | 9.44° C | 77% | 1010.7 hPa | 9.14 mm | - | - | - |
| 1777605300 | 8.89° C | 76% | 1010.7 hPa | 9.14 mm | - | - | - |
| 1777604400 | 8.33° C | 86% | 1010.4 hPa | 9.14 mm | - | - | - |
| 1777603500 | 7.78° C | 90% | 1010.5 hPa | 9.14 mm | - | - | - |
| 1777602600 | 7.78° C | 91% | 1010.4 hPa | 9.14 mm | - | - | - |
| 1777601700 | 7.78° C | 90% | 1010.2 hPa | 9.14 mm | - | - | - |
| 1777600800 | 8.33° C | 89% | 1010.1 hPa | 9.14 mm | - | - | - |
| 1777599900 | 8.33° C | 88% | 1010.1 hPa | 9.14 mm | - | - | - |
| 1777599000 | 8.33° C | 85% | 1010 hPa | 9.14 mm | - | - | - |
| 1777598100 | 8.89° C | 83% | 1009.8 hPa | 9.14 mm | - | - | - |
* Rain since midnight (hover to see other rain measurements)
** Current wind speed in m/s (hover to see current wind gust speed)